Adak, AK

6:58 AM HST on February 12, 2016 (GMT -1000)
Adak

Weather History for PADK - March, 2013

Change the Weather History Date:

Monday, March 11, 2013

  Actual Average Record
Temperature  
Mean Temperature 40 °F -  
Max Temperature 42 °F 37 °F 48 °F (1964)
Min Temperature 37 °F 27 °F 13 °F (1971)
Degree Days  
Heating Degree Days 26    
Moisture  
Dew Point 36 °F    
Average Humidity 86    
Maximum Humidity 93    
Minimum Humidity 74    
Precipitation  
Precipitation 0.00 in - - ()
Sea Level Pressure  
Sea Level Pressure 30.45 in    
Wind  
Wind Speed 19 mph (South)    
Max Wind Speed 25 mph    
Max Gust Speed 32 mph    
Visibility 8 miles    
Events      
Averages and records for this station are not official NWS values.
T = Trace of Precipitation, MM = Missing Value Source: NWS Daily Summary

Daily Weather History Graph

Daily Weather History Graph

Search for Another Location

Airport or City:

Trip Planner

Search our weather history database for the weather conditions in past years. The results will help you decide how hot, cold, wet, or windy it might be!

Date:

Astronomy

Mar. 11, 2013 Rise Set
Actual Time 9:08 AM HDT 8:45 PM HDT
Civil Twilight 8:35 AM HDT 9:18 PM HDT
Nautical Twilight 7:56 AM HDT 9:57 PM HDT
Astronomical Twilight 7:16 AM HDT 10:38 PM HDT
Moon 8:45 AM HDT (3/11) 9:21 PM HDT (3/11)
Length of Visible Light 12h 43m
Length of Day
11h 36m
New Moon, 0% of the Moon is Illuminated
Mar 11
New Moon
Mar 19
First Quarter
Mar 27
Full
Apr 2
Last Quarter
Apr 10
New

Hourly Weather History & Observations

Time (HDT) Temp. Windchill Dew Point Humidity Pressure Visibility Wind Dir Wind Speed Gust Speed Precip Events Conditions
12:16 AM 39.2 °F 30.2 °F 35.6 °F 87% 30.41 in 10.0 mi South 17.3 mph - N/A   Overcast
12:36 AM 39.2 °F 29.6 °F 35.6 °F 87% 30.42 in 10.0 mi South 19.6 mph 25.3 mph N/A   Overcast
12:56 AM 39.2 °F 29.8 °F 35.6 °F 87% 30.42 in 9.0 mi South 18.4 mph 26.5 mph N/A   Overcast
1:16 AM 39.2 °F 28.7 °F 35.6 °F 87% 30.42 in 8.0 mi SSW 23.0 mph 28.8 mph N/A   Overcast
1:56 AM 39.2 °F 30.2 °F 35.6 °F 87% 30.43 in 9.0 mi SSW 17.3 mph 25.3 mph N/A   Overcast
2:16 AM 39.2 °F 29.0 °F 35.6 °F 87% 30.43 in 9.0 mi South 21.9 mph 27.6 mph N/A   Overcast
2:36 AM 39.2 °F 29.8 °F 35.6 °F 87% 30.43 in 9.0 mi South 18.4 mph 31.1 mph N/A   Overcast
2:56 AM 39.2 °F 29.3 °F 35.6 °F 87% 30.43 in 9.0 mi South 20.7 mph 29.9 mph N/A   Overcast
3:16 AM 39.2 °F 28.5 °F 35.6 °F 87% 30.43 in 8.0 mi South 24.2 mph 32.2 mph N/A   Overcast
3:36 AM 39.2 °F 29.3 °F 35.6 °F 87% 30.43 in 7.0 mi South 20.7 mph 27.6 mph N/A   Overcast
3:56 AM 39.2 °F 28.3 °F 35.6 °F 87% 30.43 in 8.0 mi South 25.3 mph 31.1 mph N/A   Overcast
4:16 AM 39.2 °F 28.5 °F 35.6 °F 87% 30.43 in 5.0 mi South 24.2 mph 32.2 mph N/A   Overcast
4:36 AM 39.2 °F 29.3 °F 35.6 °F 87% 30.43 in 4.0 mi SSW 20.7 mph 26.5 mph N/A   Overcast
4:56 AM 39.2 °F 29.3 °F 35.6 °F 87% 30.43 in 5.0 mi SSW 20.7 mph 28.8 mph N/A   Mostly Cloudy
5:16 AM 39.2 °F 29.3 °F 35.6 °F 87% 30.43 in 4.0 mi SSW 20.7 mph 27.6 mph N/A   Mostly Cloudy
5:36 AM 39.2 °F 29.0 °F 35.6 °F 87% 30.42 in 4.0 mi SSW 21.9 mph 26.5 mph N/A   Overcast
5:56 AM 39.2 °F 29.0 °F 35.6 °F 87% 30.43 in 5.0 mi South 21.9 mph - N/A   Overcast
6:16 AM 39.2 °F 29.3 °F 35.6 °F 87% 30.42 in 5.0 mi SSW 20.7 mph 29.9 mph N/A   Overcast
6:36 AM 39.2 °F 29.3 °F 35.6 °F 87% 30.43 in 4.0 mi SSW 20.7 mph 25.3 mph N/A   Overcast
6:56 AM 39.2 °F 28.7 °F 35.6 °F 87% 30.43 in 7.0 mi South 23.0 mph - N/A   Overcast
7:16 AM 39.2 °F 29.0 °F 35.6 °F 87% 30.44 in 7.0 mi South 21.9 mph 27.6 mph N/A   Overcast
7:36 AM 39.2 °F 29.3 °F 35.6 °F 87% 30.44 in 6.0 mi South 20.7 mph 27.6 mph N/A   Overcast
7:56 AM 39.2 °F 29.6 °F 35.6 °F 87% 30.44 in 5.0 mi South 19.6 mph 25.3 mph N/A   Overcast
8:16 AM 39.2 °F 29.6 °F 35.6 °F 87% 30.44 in 5.0 mi South 19.6 mph - N/A   Overcast
8:36 AM 39.2 °F 29.8 °F 35.6 °F 87% 30.45 in 5.0 mi South 18.4 mph 24.2 mph N/A   Overcast
8:56 AM 39.2 °F 29.6 °F 35.6 °F 87% 30.45 in 6.0 mi South 19.6 mph 26.5 mph N/A   Overcast
9:16 AM 39.2 °F 29.8 °F 35.6 °F 87% 30.46 in 5.0 mi South 18.4 mph - N/A   Overcast
9:36 AM 39.2 °F 30.8 °F 35.6 °F 87% 30.46 in 5.0 mi South 15.0 mph 24.2 mph N/A   Overcast
9:56 AM 39.2 °F 30.5 °F 35.6 °F 87% 30.46 in 5.0 mi South 16.1 mph - N/A   Overcast
10:16 AM 39.2 °F 30.2 °F 35.6 °F 87% 30.47 in 5.0 mi South 17.3 mph 24.2 mph N/A   Overcast
10:36 AM 39.2 °F 30.2 °F 35.6 °F 87% 30.47 in 5.0 mi South 17.3 mph - N/A   Overcast
10:56 AM 39.2 °F 31.2 °F 35.6 °F 87% 30.48 in 5.0 mi South 13.8 mph - N/A   Overcast
11:16 AM 39.2 °F 30.5 °F 35.6 °F 87% 30.48 in 5.0 mi South 16.1 mph - N/A   Overcast
11:36 AM 39.2 °F 29.3 °F 35.6 °F 87% 30.48 in 8.0 mi South 20.7 mph - N/A   Overcast
11:56 AM 39.2 °F 29.0 °F 35.6 °F 87% 30.48 in 7.0 mi South 21.9 mph 29.9 mph N/A   Overcast
12:16 PM 39.2 °F 29.3 °F 37.4 °F 93% 30.48 in 7.0 mi South 20.7 mph 29.9 mph N/A   Overcast
12:36 PM 39.2 °F 28.7 °F 37.4 °F 93% 30.48 in 7.0 mi South 23.0 mph 28.8 mph N/A   Overcast
12:56 PM 39.2 °F 30.2 °F 37.4 °F 93% 30.48 in 7.0 mi SSW 17.3 mph 28.8 mph N/A   Overcast
1:16 PM 39.2 °F 30.2 °F 37.4 °F 93% 30.49 in 7.0 mi South 17.3 mph 23.0 mph N/A   Overcast
1:36 PM 41.0 °F 33.1 °F 37.4 °F 87% 30.49 in 7.0 mi SSW 15.0 mph 21.9 mph N/A   Overcast
1:56 PM 41.0 °F 33.5 °F 37.4 °F 87% 30.49 in 8.0 mi SSW 13.8 mph 19.6 mph N/A   Overcast
2:16 PM 41.0 °F 34.3 °F 37.4 °F 87% 30.49 in 8.0 mi South 11.5 mph 19.6 mph N/A   Overcast
2:36 PM 42.8 °F 37.0 °F 37.4 °F 81% 30.49 in 8.0 mi SSW 10.4 mph 23.0 mph N/A   Overcast
2:56 PM 42.8 °F 35.1 °F 37.4 °F 81% 30.49 in 8.0 mi South 16.1 mph 23.0 mph N/A   Overcast
3:16 PM 42.8 °F 34.8 °F 37.4 °F 81% 30.48 in 9.0 mi South 17.3 mph 25.3 mph N/A   Overcast
3:36 PM 42.8 °F 33.8 °F 37.4 °F 81% 30.47 in 9.0 mi South 21.9 mph 26.5 mph N/A   Overcast
3:56 PM 42.8 °F 34.3 °F 37.4 °F 81% 30.47 in 9.0 mi South 19.6 mph 26.5 mph N/A   Overcast
4:16 PM 42.8 °F 34.0 °F 37.4 °F 81% 30.47 in 9.0 mi South 20.7 mph 27.6 mph N/A   Mostly Cloudy
4:36 PM 41.0 °F 31.6 °F 35.6 °F 81% 30.46 in 9.0 mi SSW 20.7 mph 25.3 mph N/A   Partly Cloudy
4:56 PM 41.0 °F 32.5 °F 35.6 °F 81% 30.46 in 9.0 mi SSW 17.3 mph 25.3 mph N/A   Scattered Clouds
5:16 PM 42.8 °F 34.8 °F 37.4 °F 81% 30.46 in 8.0 mi SSW 17.3 mph - N/A   Partly Cloudy
5:36 PM 42.8 °F 35.8 °F 35.6 °F 76% 30.46 in 9.0 mi SSW 13.8 mph 23.0 mph N/A   Scattered Clouds
5:56 PM 41.0 °F 32.5 °F 35.6 °F 81% 30.46 in 9.0 mi SSW 17.3 mph 21.9 mph N/A   Mostly Cloudy
6:16 PM 41.0 °F 34.3 °F 35.6 °F 81% 30.46 in 10.0 mi South 11.5 mph 21.9 mph N/A   Overcast
6:36 PM 39.2 °F 30.8 °F 35.6 °F 87% 30.46 in 10.0 mi SSW 15.0 mph - N/A   Overcast
6:56 PM 39.2 °F 31.2 °F 35.6 °F 87% 30.45 in 10.0 mi SSW 13.8 mph - N/A   Overcast
7:16 PM 39.2 °F 32.5 °F 35.6 °F 87% 30.45 in 10.0 mi SSW 10.4 mph - N/A   Overcast
7:36 PM 39.2 °F 32.5 °F 35.6 °F 87% 30.45 in 10.0 mi South 10.4 mph - N/A   Mostly Cloudy
7:56 PM 39.2 °F 32.0 °F 33.8 °F 81% 30.45 in 10.0 mi South 11.5 mph - N/A   Mostly Cloudy
8:16 PM 39.2 °F 33.0 °F 33.8 °F 81% 30.45 in 10.0 mi South 9.2 mph - N/A   Mostly Cloudy
8:36 PM 39.2 °F 31.2 °F 33.8 °F 81% 30.45 in 10.0 mi SSE 13.8 mph - N/A   Overcast
8:56 PM 37.4 °F 28.5 °F 33.8 °F 87% 30.45 in 10.0 mi SSE 15.0 mph - N/A   Overcast
9:16 PM 37.4 °F 28.2 °F 33.8 °F 87% 30.45 in 10.0 mi SSE 16.1 mph 23.0 mph N/A   Overcast
9:36 PM 37.4 °F 28.2 °F 33.8 °F 87% 30.46 in 10.0 mi SSE 16.1 mph - N/A   Overcast
9:56 PM 37.4 °F 28.2 °F 33.8 °F 87% 30.45 in 10.0 mi SSE 16.1 mph - N/A   Overcast
10:16 PM 37.4 °F 28.9 °F 33.8 °F 87% 30.45 in 10.0 mi SSE 13.8 mph - N/A   Overcast
10:36 PM 37.4 °F 27.8 °F 33.8 °F 87% 30.45 in 10.0 mi SSE 17.3 mph - N/A   Overcast
10:56 PM 37.4 °F 27.5 °F 33.8 °F 87% 30.45 in 10.0 mi SSE 18.4 mph 23.0 mph N/A   Overcast
11:16 PM 37.4 °F 26.9 °F 33.8 °F 87% 30.45 in 10.0 mi SSE 20.7 mph - N/A   Overcast
11:36 PM 37.4 °F 26.9 °F 33.8 °F 87% 30.45 in 10.0 mi SSE 20.7 mph 27.6 mph N/A   Overcast
11:56 PM 37.4 °F 26.4 °F 33.8 °F 87% 30.44 in 10.0 mi SSE 23.0 mph - N/A   Overcast